Weather History for KAFW - December, 2011

Change the Weather History Date:

Monday, December 5, 2011

  Actual Average Record
Temperature  
Mean Temperature 36 °F -  
Max Temperature 39 °F 58 °F 79 °F (2014)
Min Temperature 33 °F 37 °F 26 °F (2005)
Degree Days  
Heating Degree Days 29    
Moisture  
Dew Point 31 °F    
Average Humidity 81    
Maximum Humidity 93    
Minimum Humidity 55    
Precipitation  
Precipitation 0.31 in - - ()
Sea Level Pressure  
Sea Level Pressure 30.20 in    
Wind  
Wind Speed 15 mph (North)    
Max Wind Speed 23 mph    
Max Gust Speed 33 mph    
Visibility 9 miles    
Events Rain , Snow    
Averages and records for this station are not official NWS values.
T = Trace of Precipitation, MM = Missing Value Source: NWS Daily Summary

Daily Weather History Graph

Daily Weather History Graph

Search for Another Location

Airport or City:

Trip Planner

Search our weather history database for the weather conditions in past years. The results will help you decide how hot, cold, wet, or windy it might be!

Date:

Astronomy

Dec. 05, 2011 Rise Set
Actual Time 7:17 AM CST 5:22 PM CST
Civil Twilight 6:50 AM CST 5:49 PM CST
Nautical Twilight 6:19 AM CST 6:20 PM CST
Astronomical Twilight 5:49 AM CST 6:50 PM CST
Moon 2:11 PM CST (12/5) 2:50 AM CST (12/5)
Length of Visible Light 10h 59m
Length of Day
10h 05m
Waxing Gibbous, 80% of the Moon is Illuminated
Dec 5
Waxing Gibbous
Dec 10
Full
Dec 17
Last Quarter
Dec 24
New
Jan 1
First Quarter

Hourly Weather History & Observations

Time (CST) Temp. Windchill Dew Point Humidity Pressure Visibility Wind Dir Wind Speed Gust Speed Precip Events Conditions
12:53 AM 39.9 °F 34.5 °F 36.0 °F 86% 30.09 in 10.0 mi North 8.1 mph 19.6 mph N/A   Mostly Cloudy
1:53 AM 39.9 °F 32.5 °F 36.0 °F 86% 30.05 in 10.0 mi NE 12.7 mph - N/A   Mostly Cloudy
2:40 AM 39.2 °F 32.0 °F 35.6 °F 87% 30.10 in 4.0 mi NW 11.5 mph 21.9 mph 0.05 in Rain Heavy Rain
2:48 AM 39.2 °F 31.6 °F 35.6 °F 87% 30.09 in 2.5 mi NNW 12.7 mph - 0.12 in Rain Heavy Rain
2:53 AM 39.0 °F 32.3 °F 36.0 °F 89% 30.13 in 2.5 mi NNW 10.4 mph - 0.14 in Rain Heavy Rain
3:01 AM 39.2 °F 31.6 °F 35.6 °F 87% 30.10 in 4.0 mi NNW 12.7 mph - 0.02 in Rain Rain
3:53 AM 37.9 °F 29.2 °F 35.1 °F 89% 30.17 in 6.0 mi NW 15.0 mph 27.6 mph 0.14 in Rain Rain
4:03 AM 37.4 °F 27.8 °F 35.6 °F 93% 30.15 in 7.0 mi NNW 17.3 mph - 0.02 in Rain Rain
4:37 AM 35.6 °F 25.9 °F 33.8 °F 93% 30.13 in 5.0 mi NNW 16.1 mph 27.6 mph 0.15 in Rain Heavy Rain
4:53 AM 35.6 °F 24.5 °F 33.8 °F 93% 30.12 in 9.0 mi NNW 20.7 mph 27.6 mph N/A Rain Light Rain
4:56 AM 35.6 °F 25.2 °F 33.8 °F 93% 30.12 in 9.0 mi NNW 18.4 mph 27.6 mph 0.00 in Rain Light Rain
5:53 AM 35.1 °F 24.5 °F 33.1 °F 92% 30.17 in 10.0 mi North 18.4 mph 25.3 mph 0.00 in   Light Drizzle
6:44 AM 35.6 °F 24.8 °F 32.0 °F 87% 30.15 in 10.0 mi North 19.6 mph 29.9 mph 0.00 in Rain Light Rain
6:48 AM 35.6 °F 25.5 °F 33.8 °F 93% 30.16 in 10.0 mi North 17.3 mph 29.9 mph 0.00 in Rain Light Rain
6:53 AM 35.1 °F 24.8 °F 33.1 °F 92% 30.19 in 10.0 mi North 17.3 mph 31.1 mph 0.00 in Rain Light Rain
7:53 AM 35.1 °F 24.5 °F 33.1 °F 92% 30.21 in 10.0 mi North 18.4 mph 25.3 mph 0.01 in Rain Light Rain
8:07 AM 35.6 °F 25.2 °F 33.8 °F 93% 30.17 in 8.0 mi North 18.4 mph 25.3 mph 0.00 in Rain Light Rain
8:53 AM 35.1 °F 24.5 °F 33.1 °F 92% 30.21 in 7.0 mi North 18.4 mph 27.6 mph 0.01 in Rain Light Rain
9:24 AM 35.6 °F 25.9 °F 33.8 °F 93% 30.19 in 8.0 mi North 16.1 mph 24.2 mph 0.01 in Rain Light Rain
9:53 AM 36.0 °F 26.0 °F 33.1 °F 89% 30.23 in 10.0 mi North 17.3 mph 26.5 mph 0.01 in   Overcast
10:49 AM 37.4 °F 26.6 °F 32.0 °F 81% 30.22 in 10.0 mi North 21.9 mph 33.4 mph N/A   Overcast
10:53 AM 37.0 °F 25.9 °F 32.0 °F 82% 30.24 in 10.0 mi North 23.0 mph 29.9 mph N/A   Overcast
11:53 AM 39.0 °F 30.3 °F 32.0 °F 76% 30.24 in 10.0 mi North 16.1 mph 26.5 mph N/A   Overcast
12:53 PM 39.9 °F 31.8 °F 30.0 °F 68% 30.21 in 10.0 mi North 15.0 mph 29.9 mph N/A   Overcast
1:53 PM 39.9 °F 31.1 °F 28.9 °F 65% 30.19 in 10.0 mi North 17.3 mph 26.5 mph N/A   Overcast
2:27 PM 39.2 °F 31.2 °F 28.4 °F 65% 30.18 in 10.0 mi North 13.8 mph 26.5 mph N/A   Overcast
2:53 PM 39.0 °F 29.6 °F 27.0 °F 62% 30.21 in 10.0 mi North 18.4 mph 25.3 mph N/A   Overcast
3:53 PM 39.2 °F 30.8 °F 26.6 °F 61% 30.19 in 10.0 mi North 15.0 mph 26.5 mph N/A   Overcast
4:53 PM 37.9 °F 28.5 °F 26.1 °F 62% 30.24 in 10.0 mi North 17.3 mph - N/A   Overcast
5:53 PM 37.9 °F 28.9 °F 23.0 °F 55% 30.26 in 10.0 mi North 16.1 mph - N/A   Overcast
6:53 PM 36.0 °F 25.6 °F 24.1 °F 62% 30.28 in 10.0 mi NNW 18.4 mph 23.0 mph N/A   Overcast
7:53 PM 36.0 °F 27.5 °F 25.0 °F 64% 30.30 in 10.0 mi NNW 12.7 mph 19.6 mph N/A   Overcast
8:53 PM 35.1 °F 26.4 °F 26.1 °F 70% 30.33 in 10.0 mi North 12.7 mph - N/A   Overcast
9:53 PM 34.0 °F 25.0 °F 27.0 °F 75% 30.35 in 10.0 mi NNW 12.7 mph 21.9 mph 0.00 in   Light Drizzle
10:53 PM 33.1 °F 23.4 °F 26.1 °F 75% 30.35 in 9.0 mi NNW 13.8 mph - 0.00 in Snow Light Snow
11:53 PM 33.1 °F 22.6 °F 25.0 °F 72% 30.34 in 10.0 mi NNW 16.1 mph 24.2 mph 0.00 in   Overcast